MEASAT 3D

Last updated on Thu Oct 16 2025 00:02:50 GMT+0000 (Coordinated Universal Time)

1 52904U 22067B 25288.57500030 -.00000256 00000+0 00000+0 0 9994 2 52904 0.0416 318.4931 0002893 292.6870 71.6807 1.00269024 12194
UTC large
Height (km)
Speed (km/s)
/
Latitude / Longitude
Inclination (degrees)
Orbital Period (minutes)
Azimuth
Elevation
Range (km)
Doppler Factor

Next 0 passes for location: London (51.5072 / 0.1276)

Sorry there are no passes over London.